Weather History for KN60 - February, 2014

Change the Weather History Date:

Tuesday, February 11, 2014

  Actual Average Record
Temperature  
Mean Temperature 18 °F -  
Max Temperature 36 °F 23 °F 48 °F (1998)
Min Temperature 0 °F 5 °F -23 °F (2000)
Degree Days  
Heating Degree Days 47    
Month to date heating degree days 701  
Moisture  
Dew Point 7 °F    
Average Humidity 79    
Maximum Humidity 88    
Minimum Humidity 69    
Precipitation  
Precipitation 0.02 in - - ()
Month to date precipitation 0.02  
Year to date precipitation 0.63  
Sea Level Pressure  
Sea Level Pressure 29.98 in    
Wind  
Wind Speed 13 mph (WSW)    
Max Wind Speed 25 mph    
Max Gust Speed 33 mph    
Averages and records for this station are not official NWS values.
T = Trace of Precipitation, MM = Missing Value Source: NWS Daily Summary

Daily Weather History Graph

Daily Weather History Graph

Search for Another Location

Airport or City:

Trip Planner

Search our weather history database for the weather conditions in past years. The results will help you decide how hot, cold, wet, or windy it might be!

Date:

Astronomy

Feb. 11, 2014 Rise Set
Actual Time 7:57 AM CST 6:02 PM CST
Civil Twilight 7:25 AM CST 6:34 PM CST
Nautical Twilight 6:49 AM CST 7:11 PM CST
Astronomical Twilight 6:13 AM CST 7:46 PM CST
Moon 3:19 PM CST (2/11) 5:42 AM CST (2/11)
Length of Visible Light 11h 09m
Length of Day
10h 04m
Waxing Gibbous, 91% of the Moon is Illuminated
Feb 11
Waxing Gibbous
Feb 14
Full
Feb 22
Last Quarter
Mar 1
New
Mar 8
First Quarter

Hourly Weather History & Observations

Time (CST) Temp. Windchill Dew Point Humidity Pressure Visibility Wind Dir Wind Speed Gust Speed Precip Events Conditions
12:52 AM -0.0 °F -14.2 °F -4.0 °F 83% 30.19 in - South 8.1 mph - N/A   Unknown
1:52 AM 1.0 °F -14.0 °F -2.9 °F 83% 30.14 in - South 9.2 mph - N/A   Unknown
2:52 AM 1.0 °F -14.0 °F -2.0 °F 87% 30.11 in - South 9.2 mph - N/A   Unknown
3:52 AM 1.9 °F -13.8 °F -2.0 °F 83% 30.06 in - SSE 10.4 mph - N/A   Unknown
4:52 AM 3.0 °F -12.5 °F -0.9 °F 84% 30.01 in - SSE 10.4 mph - N/A   Unknown
5:52 AM 5.0 °F -10.8 °F 1.0 °F 84% 29.96 in - South 11.5 mph - N/A   Unknown
6:52 AM 7.0 °F -9.8 °F 3.0 °F 84% 29.92 in - South 13.8 mph - N/A   Unknown
7:52 AM 10.0 °F -0.9 °F 6.1 °F 84% 29.89 in - SSE 6.9 mph - N/A   Unknown
8:52 AM 12.9 °F -1.6 °F 9.0 °F 84% 29.85 in - South 12.7 mph - N/A   Unknown
9:52 AM 18.0 °F 7.7 °F 12.0 °F 78% 29.82 in - South 8.1 mph - 0.01 in   Unknown
10:52 AM 21.9 °F 12.5 °F 15.1 °F 75% 29.79 in - SSW 8.1 mph - N/A   Unknown
11:52 AM 28.9 °F 21.1 °F 21.0 °F 72% 29.79 in - West 8.1 mph - N/A   Unknown
12:52 PM 35.1 °F 26.9 °F 26.1 °F 70% 29.76 in - West 11.5 mph - 0.01 in   Unknown
1:52 PM 33.1 °F 21.5 °F 24.1 °F 70% 29.78 in - NW 19.6 mph - N/A   Unknown
2:52 PM 28.9 °F 15.4 °F 21.0 °F 72% 29.82 in - NW 21.9 mph - N/A   Unknown
3:52 PM 21.9 °F 5.1 °F 15.1 °F 75% 29.86 in - NNW 25.3 mph 32.2 mph N/A   Unknown
4:52 PM 18.0 °F 0.9 °F 10.9 °F 74% 29.93 in - NNW 21.9 mph - N/A   Unknown
5:52 PM 16.0 °F -0.4 °F 9.0 °F 74% 29.97 in - NNW 18.4 mph - N/A   Unknown
6:52 PM 12.9 °F -5.3 °F 6.1 °F 74% 30.04 in - NNW 20.7 mph - N/A   Unknown
7:52 PM 10.0 °F -8.1 °F 3.9 °F 76% 30.08 in - NNW 18.4 mph - N/A   Unknown
8:52 PM 9.0 °F -10.0 °F 1.9 °F 73% 30.13 in - NW 19.6 mph - N/A   Unknown
9:52 PM 7.0 °F -10.4 °F 1.0 °F 77% 30.17 in - NW 15.0 mph - N/A   Unknown
10:52 PM 3.0 °F -18.3 °F -2.9 °F 76% 30.19 in - NNW 20.7 mph - N/A   Unknown
11:52 PM 1.0 °F -17.3 °F -5.1 °F 75% 30.19 in - NW 13.8 mph - N/A   Unknown